Weather History for Fort Sill, OK

Change the Weather History Date:

Monday, November 4, 2013

  Actual Average Record
Temperature  
Mean Temperature 60 °F -  
Max Temperature 69 °F 64 °F 86 °F (2005)
Min Temperature 50 °F 40 °F 22 °F (1950)
Degree Days  
Heating Degree Days 6    
Growing Degree Days 10 (Base 50)    
Moisture  
Dew Point 53 °F    
Average Humidity 81    
Maximum Humidity 94    
Minimum Humidity 57    
Precipitation  
Precipitation 0.00 in - - ()
Sea Level Pressure  
Sea Level Pressure 29.96 in    
Wind  
Wind Speed 15 mph (SSE)    
Max Wind Speed 22 mph    
Max Gust Speed 28 mph    
Visibility 10 miles    
Events      
Averages and records for this station are not official NWS values.
T = Trace of Precipitation, MM = Missing Value Source: NWS Daily Summary

Daily Weather History Graph

Daily Weather History Graph

Search for Another Location

Airport:

Trip Planner

Search our weather history database for the weather conditions in past years. The results will help you decide how hot, cold, wet, or windy it might be!

Date:

Astronomy

Nov. 04, 2013 Rise Set
Actual Time 6:57 AM CST 5:36 PM CST
Civil Twilight 6:30 AM CST 6:02 PM CST
Nautical Twilight 6:00 AM CST 6:32 PM CST
Astronomical Twilight 5:31 AM CST 7:02 PM CST
Moon 8:06 AM CST (11/4) 6:45 PM CST (11/4)
Length of Visible Light 11h 32m
Length of Day
10h 39m
New Moon, 2% of the Moon is Illuminated
Nov 4
New Moon
Nov 9
First Quarter
Nov 17
Full
Nov 25
Last Quarter
Dec 2
New

Hourly Weather History & Observations

Time (CST) Temp. Dew Point Humidity Pressure Visibility Wind Dir Wind Speed Gust Speed Precip Events Conditions
12:58 AM 52.5 °F 47.1 °F 82% 29.93 in 10.0 mi South 15.0 mph - N/A   Overcast
1:58 AM 53.4 °F 46.4 °F 77% 29.90 in 10.0 mi South 16.1 mph - N/A   Overcast
2:58 AM 52.5 °F 45.1 °F 76% 29.91 in 10.0 mi South 16.1 mph - N/A   Clear
3:58 AM 51.6 °F 44.8 °F 77% 29.91 in 10.0 mi South 11.5 mph - N/A   Clear
4:58 AM 51.1 °F 45.9 °F 82% 29.91 in 10.0 mi South 12.7 mph - N/A   Clear
5:58 AM 50.9 °F 46.4 °F 85% 29.91 in 10.0 mi South 15.0 mph - N/A   Clear
6:58 AM 50.7 °F 47.1 °F 87% 29.92 in 10.0 mi South 13.8 mph - N/A   Clear
7:58 AM 51.6 °F 48.6 °F 89% 29.95 in 10.0 mi South 12.7 mph - N/A   Clear
8:58 AM 57.9 °F 51.6 °F 80% 29.96 in 10.0 mi South 16.1 mph 23.0 mph N/A   Clear
9:58 AM 61.9 °F 52.9 °F 72% 29.96 in 10.0 mi South 21.9 mph 27.6 mph N/A   Clear
10:58 AM 65.1 °F 53.6 °F 66% 29.99 in 10.0 mi South 17.3 mph 21.9 mph N/A   Mostly Cloudy
11:58 AM 66.6 °F 53.4 °F 63% 29.96 in 10.0 mi South 15.0 mph - N/A   Mostly Cloudy
12:58 PM 69.4 °F 53.4 °F 57% 29.94 in 10.0 mi South 13.8 mph - N/A   Overcast
1:58 PM 68.7 °F 54.0 °F 59% 29.93 in 10.0 mi SSE 11.5 mph - N/A   Overcast
2:58 PM 66.7 °F 55.2 °F 66% 29.93 in 10.0 mi SSE 19.6 mph - N/A   Overcast
3:58 PM 64.8 °F 55.0 °F 71% 29.93 in 10.0 mi SE 18.4 mph - N/A   Overcast
4:58 PM 63.7 °F 55.4 °F 74% 29.94 in 10.0 mi SSE 17.3 mph - N/A   Overcast
5:58 PM 60.1 °F 54.9 °F 83% 29.96 in 10.0 mi SE 13.8 mph - N/A   Clear
6:58 PM 58.5 °F 54.9 °F 88% 29.99 in 10.0 mi SE 12.7 mph - N/A   Partly Cloudy
7:43 PM 59.0 °F 55.4 °F 88% 30.00 in 10.0 mi SSE 11.5 mph - N/A   Mostly Cloudy
7:58 PM 58.8 °F 55.2 °F 88% 30.00 in 10.0 mi SSE 12.7 mph 20.7 mph N/A   Mostly Cloudy
8:58 PM 59.0 °F 55.4 °F 88% 30.00 in 10.0 mi SSE 17.3 mph - N/A   Overcast
9:23 PM 59.0 °F 55.4 °F 88% 30.01 in 10.0 mi SSE 15.0 mph - N/A   Overcast
9:48 PM 59.0 °F 55.4 °F 88% 30.02 in 10.0 mi SSE 11.5 mph - N/A   Overcast
9:58 PM 58.6 °F 55.4 °F 89% 30.01 in 10.0 mi SSE 12.7 mph - N/A   Overcast
10:28 PM 59.0 °F 55.4 °F 88% 30.02 in 10.0 mi SSE 15.0 mph - N/A   Overcast
10:58 PM 59.0 °F 56.1 °F 90% 30.01 in 10.0 mi SSE 13.8 mph - N/A   Overcast
11:33 PM 59.0 °F 55.4 °F 88% 30.01 in 10.0 mi SSE 11.5 mph - N/A   Overcast
11:52 PM 59.0 °F 57.2 °F 94% 30.01 in 9.0 mi SSE 12.7 mph - N/A   Overcast
11:58 PM 59.0 °F 56.7 °F 92% 30.00 in 8.0 mi SSE 11.5 mph - N/A   Overcast